This demonstration page uses our WeatherBlox Daily Observations layout. Learn more.

Hourly Observations for March 19, 2016

Temp ( °F °C ) Dew Point ( °F °C ) Humidity (%) Winds ( mph kmh ) Pressure ( in mb ) Visibility ( mi km ) Precip ( " mm )
12:15 am 00:15 Clear 26 -3.3 10 -12.1 51 51 NW 5 7 30.36 1028 10 16.0934 0 0
12:35 am 00:35 Clear 23 -4.8 10 -12.3 56 56 WNW 3 6 30.39 1029 10 16.0934 0 0
12:55 am 00:55 Clear 24 -4.6 10 -12 57 57 WNW 6 9 30.39 1029 10 16.0934 0 0
1:35 am 01:35 Partly Cloudy 21 -6.3 9 -12.6 61 61 WNW 5 7 30.39 1029 10 16.0934 0 0
1:55 am 01:55 Partly Cloudy 21 -6.2 10 -12.5 61 61 NW 6 9 30.39 1029 10 16.0934 0 0
2:15 am 02:15 Partly Cloudy 21 -6.1 10 -12.2 62 62 NW 5 7 30.42 1030 10 16.0934 0 0
2:35 am 02:35 Mostly Cloudy 21 -5.9 11 -11.7 64 64 NW 7 11 30.42 1030 10 16.0934 0 0
2:55 am 02:55 Cloudy 26 -3.3 14 -10 60 60 NW 7 11 30.39 1029 10 16.0934 0 0
3:15 am 03:15 Cloudy 26 -3.1 14 -10 59 59 NW 6 9 30.39 1029 10 16.0934 0 0
3:35 am 03:35 Cloudy 28 -2.2 14 -10 56 56 NW 7 11 30.36 1028 10 16.0934 0 0
3:55 am 03:55 Mostly Cloudy 26 -3.1 14 -10 59 59 WNW 8 13 30.36 1028 10 16.0934 0 0
4:15 am 04:15 Partly Cloudy 25 -3.8 14 -10.2 62 62 WNW 6 9 30.36 1028 10 16.0934 0 0
4:35 am 04:35 Partly Cloudy 25 -4.1 13 -10.3 62 62 WNW 8 13 30.36 1028 10 16.0934 0 0
4:55 am 04:55 Partly Cloudy 24 -4.4 13 -10.5 63 63 WNW 7 11 30.36 1028 10 16.0934 0 0
5:15 am 05:15 Partly Cloudy 23 -5.1 13 -10.5 66 66 WNW 7 11 30.39 1029 10 16.0934 0 0
5:35 am 05:35 Clear 22 -5.5 13 -10.5 68 68 NW 7 11 30.39 1029 10 16.0934 0 0
5:55 am 05:55 Clear 21 -6.1 13 -10.5 71 71 WNW 6 9 30.42 1030 10 16.0934 0 0
6:15 am 06:15 Clear 22 -5.7 14 -10.2 71 71 WNW 8 13 30.42 1030 10 16.0934 0 0
6:35 am 06:35 Partly Cloudy 22 -5.5 13 -10.5 68 68 WNW 7 11 30.42 1030 10 16.0934 0 0
6:55 am 06:55 Mostly Cloudy 23 -5.1 13 -10.4 67 67 WNW 5 7 30.42 1030 10 16.0934 0 0
7:15 am 07:15 Cloudy 23 -5 14 -10 68 68 WNW 6 9 30.42 1030 10 16.0934 0 0
7:35 am 07:35 Mostly Cloudy 24 -4.5 14 -10 66 66 WNW 7 11 30.42 1030 10 16.0934 0 0
7:55 am 07:55 Mostly Cloudy 23 -5 14 -10 68 68 W 8 13 30.45 1031 10 16.0934 0 0
8:35 am 08:35 Cloudy 27 -2.8 15 -9.2 62 62 WNW 10 17 30.42 1030 10 16.0934 0 0
8:55 am 08:55 Partly Cloudy 28 -2 15 -9.4 57 57 W 12 19 30.42 1030 10 16.0934 0 0
9:15 am 09:15 Sunny 31 -0.6 15 -9.3 52 52 NW 14 22 30.39 1029 10 16.0934 0 0
9:35 am 09:35 Partly Cloudy 31 -0.3 13 -10.3 47 47 NNW 22 35 30.39 1029 10 16.0934 0 0
10:15 am 10:15 Partly Cloudy 32 0 12 -11 44 44 NW 24 39 30.42 1030 10 16.0934 0 0
10:35 am 10:35 Partly Cloudy 33 0.6 12 -11.2 41 41 NNW 23 37 30.42 1030 10 16.0934 0 0
10:55 am 10:55 Mostly Cloudy 32 0.1 11 -11.6 41 41 NW 21 33 30.42 1030 10 16.0934 0 0
11:35 am 11:35 Partly Cloudy 34 1.3 10 -12.1 36 36 NNW 20 31 30.42 1030 10 16.0934 0 0
11:55 am 11:55 Partly Cloudy 35 1.8 10 -12 35 35 NNW 18 30 30.42 1030 10 16.0934 0 0
12:15 pm 12:15 Partly Cloudy 35 1.9 10 -12 35 35 N 20 31 30.42 1030 10 16.0934 0 0
12:35 pm 12:35 Partly Cloudy 37 2.5 11 -11.8 34 34 NNW 18 30 30.39 1029 10 16.0934 0 0
12:55 pm 12:55 Mostly Cloudy 36 2.2 10 -12 34 34 NNW 21 33 30.42 1030 10 16.0934 0 0
1:15 pm 13:15 Cloudy 36 2.4 10 -12 34 34 NNW 22 35 30.42 1030 10 16.0934 0 0
1:35 pm 13:35 Cloudy 37 2.5 10 -12 34 34 NNW 20 31 30.39 1029 10 16.0934 0 0
1:55 pm 13:55 Cloudy 36 2.3 10 -12.1 34 34 N 20 31 30.36 1028 10 16.0934 0 0
2:15 pm 14:15 Cloudy 36 2.1 11 -11.8 35 35 NNW 20 31 30.39 1029 10 16.0934 0 0
2:35 pm 14:35 Cloudy 36 2.4 10 -12.1 34 34 NNW 13 20 30.36 1028 10 16.0934 0 0
2:55 pm 14:55 Cloudy 37 2.6 11 -11.9 34 34 NNW 18 30 30.36 1028 10 16.0934 0 0
3:35 pm 15:35 Cloudy 37 2.8 11 -11.5 34 34 N 16 26 30.36 1028 10 16.0934 0 0
3:55 pm 15:55 Cloudy 37 2.6 11 -11.4 35 35 N 16 26 30.36 1028 10 16.0934 0 0
4:15 pm 16:15 Cloudy 37 2.5 13 -10.8 37 37 N 17 28 30.36 1028 10 16.0934 0 0
5:15 pm 17:15 Cloudy 36 2.3 15 -9.6 41 41 N 18 30 30.36 1028 10 16.0934 0 0
5:35 pm 17:35 Cloudy 36 2.3 15 -9.5 42 42 N 16 26 30.36 1028 10 16.0934 0 0
5:55 pm 17:55 Cloudy 36 2.1 16 -9.1 44 44 N 17 28 30.39 1029 10 16.0934 0 0
6:15 pm 18:15 Cloudy 36 2.1 17 -8.5 46 46 N 18 30 30.42 1030 10 16.0934 0 0
6:35 pm 18:35 Cloudy 36 2.1 17 -8.6 45 45 N 15 24 30.42 1030 10 16.0934 0 0
6:55 pm 18:55 Mostly Cloudy 35 1.7 15 -9.4 44 44 N 13 20 30.42 1030 10 16.0934 0 0
7:15 pm 19:15 Mostly Cloudy 35 1.6 16 -9.1 45 45 N 17 28 30.42 1030 10 16.0934 0 0
7:35 pm 19:35 Mostly Cloudy 35 1.4 17 -8.6 48 48 N 18 30 30.42 1030 10 16.0934 0 0
7:55 pm 19:55 Cloudy 34 1 17 -8.4 50 50 N 12 19 30.45 1031 10 16.0934 0 0
8:15 pm 20:15 Cloudy 33 0.7 16 -8.8 49 49 N 8 13 30.45 1031 10 16.0934 0 0
8:35 pm 20:35 Cloudy 32 0 16 -8.9 52 52 N 7 11 30.45 1031 10 16.0934 0 0
9:15 pm 21:15 Clear 29 -1.6 16 -9 57 57 N 8 13 30.48 1032 10 16.0934 0 0
9:35 pm 21:35 Clear 28 -2 16 -9 59 59 NNW 9 15 30.48 1032 10 16.0934 0 0
9:55 pm 21:55 Clear 28 -2.2 17 -8.6 62 62 NNW 8 13 30.48 1032 10 16.0934 0 0
10:15 pm 22:15 Clear 28 -2.1 17 -8.5 62 62 NNW 9 15 30.48 1032 10 16.0934 0 0
11:15 pm 23:15 Clear 25 -4.1 16 -9.1 69 69 NNW 7 11 30.53 1034 10 16.0934 0 0
11:35 pm 23:35 Clear 25 -3.8 16 -9.1 67 67 NNW 6 9 30.53 1034 10 16.0934 0 0

Powered by AerisWeather